• In Austria
  • List of Countries
  • For 7 days
  • Water Temperature
  • Satellite Maps
  • Weather Map
  • News
  • Weather Widgets
  • user-avatar
    Login

    Hourly Weather Dikhil

    Today, 21 September, Friday

    Time Temperature Precipitation Wind Pressure Humidity
    00:00 +34°C° 0 mm 4 mps 714 mmHg 51%
    01:00 +34°C° 0 mm 3 mps 714 mmHg 52%
    02:00 +34°C° 0 mm 3 mps 714 mmHg 54%
    03:00 +33°C° 0 mm 3 mps 714 mmHg 55%
    04:00 +33°C° 0 mm 3 mps 714 mmHg 57%
    05:00 +32°C° 0 mm 2 mps 714 mmHg 58%
    06:00 +31°C° 0 mm 2 mps 715 mmHg 60%
    07:00 +32°C° 0 mm 2 mps 715 mmHg 56%
    08:00 +34°C° 0 mm 2 mps 715 mmHg 51%
    09:00 +35°C° 0 mm 3 mps 716 mmHg 47%
    10:00 +36°C° 0 mm 2 mps 716 mmHg 42%
    11:00 +37°C° 0 mm 2 mps 716 mmHg 37%
    12:00 +38°C° 0 mm 2 mps 716 mmHg 32%
    13:00 +39°C° 0 mm 2 mps 715 mmHg 29%
    14:00 +39°C° 0 mm 3 mps 715 mmHg 27%
    15:00 +40°C° 0 mm 3 mps 714 mmHg 24%
    16:00 +41°C° 0 mm 4 mps 714 mmHg 24%
    17:00 +40°C° 0 mm 4 mps 714 mmHg 24%
    18:00 +40°C° 0 mm 4 mps 714 mmHg 24%
    19:00 +38°C° 0 mm 4 mps 714 mmHg 25%
    20:00 +38°C° 0 mm 4 mps 714 mmHg 26%
    21:00 +37°C° 0 mm 4 mps 715 mmHg 28%
    22:00 +37°C° 0 mm 3 mps 715 mmHg 30%
    23:00 +36°C° 0 mm 2 mps 715 mmHg 32%

    Tomorrow, 22 September, Saturday

    Time Temperature Precipitation Wind Pressure Humidity
    00:00 +34°C° 0 mm 1 mps 715 mmHg 34%
    01:00 +34°C° 0 mm 1 mps 715 mmHg 36%
    02:00 +33°C° 0 mm 1 mps 715 mmHg 37%
    03:00 +33°C° 0 mm 1 mps 715 mmHg 39%
    04:00 +32°C° 0 mm 1 mps 715 mmHg 41%
    05:00 +32°C° 0 mm 1 mps 715 mmHg 43%
    06:00 +32°C° 0 mm 1 mps 715 mmHg 44%
    07:00 +34°C° 0 mm 2 mps 716 mmHg 42%
    08:00 +34°C° 0 mm 2 mps 717 mmHg 39%
    09:00 +35°C° 0 mm 2 mps 717 mmHg 37%
    10:00 +36°C° 0 mm 2 mps 717 mmHg 33%
    11:00 +36°C° 0 mm 1 mps 717 mmHg 29%
    12:00 +37°C° 0 mm 1 mps 716 mmHg 25%
    13:00 +39°C° 0 mm 1 mps 716 mmHg 23%
    14:00 +39°C° 0 mm 1 mps 715 mmHg 22%
    15:00 +40°C° 0 mm 1 mps 714 mmHg 21%
    16:00 +39°C° 0 mm 2 mps 714 mmHg 22%
    17:00 +39°C° 0 mm 2 mps 714 mmHg 23%
    18:00 +39°C° 0 mm 2 mps 714 mmHg 24%
    19:00 +38°C° 0 mm 3 mps 715 mmHg 32%
    20:00 +36°C° 0 mm 4 mps 715 mmHg 39%
    21:00 +35°C° 0 mm 5 mps 715 mmHg 47%
    22:00 +34°C° 0 mm 4 mps 716 mmHg 50%
    23:00 +34°C° 0 mm 4 mps 716 mmHg 53%

    Day after tomorrow, 23 September, Sunday

    Time Temperature Precipitation Wind Pressure Humidity
    00:00 +33°C° 0 mm 4 mps 716 mmHg 56%
    01:00 +33°C° 0 mm 4 mps 715 mmHg 57%
    02:00 +32°C° 0 mm 4 mps 715 mmHg 59%
    03:00 +31°C° 0 mm 3 mps 715 mmHg 60%
    04:00 +30°C° 0 mm 3 mps 715 mmHg 61%
    05:00 +30°C° 0 mm 3 mps 715 mmHg 61%
    06:00 +30°C° 0 mm 3 mps 716 mmHg 62%
    07:00 +31°C° 0 mm 3 mps 716 mmHg 54%
    08:00 +34°C° 0 mm 2 mps 717 mmHg 45%
    09:00 +35°C° 0 mm 2 mps 718 mmHg 37%
    10:00 +36°C° 0 mm 3 mps 717 mmHg 33%
    11:00 +38°C° 0 mm 3 mps 717 mmHg 29%
    12:00 +39°C° 0 mm 3 mps 717 mmHg 24%
    13:00 +40°C° 0 mm 4 mps 716 mmHg 23%
    14:00 +41°C° 0 mm 4 mps 716 mmHg 21%
    15:00 +41°C° 0 mm 5 mps 715 mmHg 20%
    16:00 +41°C° 0 mm 5 mps 715 mmHg 20%
    17:00 +40°C° 0 mm 5 mps 715 mmHg 21%
    18:00 +40°C° 0 mm 5 mps 715 mmHg 21%
    19:00 +38°C° 0 mm 4 mps 715 mmHg 25%
    20:00 +37°C° 0 mm 4 mps 716 mmHg 29%
    21:00 +36°C° 0 mm 4 mps 716 mmHg 33%
    22:00 +35°C° 0 mm 3 mps 716 mmHg 36%
    23:00 +35°C° 0 mm 3 mps 716 mmHg 39%

    24 September, Monday

    Time Temperature Precipitation Wind Pressure Humidity
    00:00 +34°C° 0 mm 2 mps 716 mmHg 42%
    01:00 +32°C° 0 mm 2 mps 715 mmHg 44%
    02:00 +32°C° 0 mm 2 mps 715 mmHg 46%
    03:00 +31°C° 0 mm 2 mps 714 mmHg 48%
    04:00 +31°C° 0 mm 1 mps 715 mmHg 48%
    05:00 +31°C° 0 mm 1 mps 715 mmHg 48%
    06:00 +31°C° 0 mm 1 mps 715 mmHg 48%
    07:00 +32°C° 0 mm 1 mps 716 mmHg 41%
    08:00 +34°C° 0 mm 2 mps 716 mmHg 33%
    09:00 +36°C° 0 mm 2 mps 717 mmHg 25%
    10:00 +37°C° 0 mm 2 mps 716 mmHg 22%
    11:00 +38°C° 0 mm 2 mps 716 mmHg 19%
    12:00 +39°C° 0 mm 3 mps 715 mmHg 15%
    13:00 +40°C° 0 mm 3 mps 715 mmHg 15%
    14:00 +40°C° 0 mm 3 mps 714 mmHg 15%
    15:00 +42°C° 0 mm 3 mps 713 mmHg 15%
    16:00 +40°C° 0 mm 3 mps 713 mmHg 16%
    17:00 +40°C° 0 mm 3 mps 713 mmHg 17%
    18:00 +41°C° 0 mm 4 mps 713 mmHg 18%
    19:00 +40°C° 0 mm 4 mps 714 mmHg 20%
    20:00 +38°C° 0 mm 4 mps 714 mmHg 22%
    21:00 +37°C° 0 mm 4 mps 715 mmHg 24%
    22:00 +37°C° 0 mm 4 mps 715 mmHg 26%
    23:00 +36°C° 0 mm 3 mps 714 mmHg 28%

    25 September, Tuesday

    Time Temperature Precipitation Wind Pressure Humidity
    00:00 +35°C° 0 mm 3 mps 714 mmHg 30%
    01:00 +35°C° 0 mm 3 mps 714 mmHg 32%
    02:00 +34°C° 0 mm 3 mps 714 mmHg 35%
    03:00 +33°C° 0 mm 3 mps 714 mmHg 37%
    04:00 +33°C° 0 mm 3 mps 714 mmHg 40%
    05:00 +33°C° 0 mm 3 mps 714 mmHg 43%
    06:00 +31°C° 0 mm 3 mps 715 mmHg 45%
    07:00 +33°C° 0 mm 3 mps 715 mmHg 43%
    08:00 +34°C° 0 mm 3 mps 716 mmHg 40%
    09:00 +35°C° 0 mm 3 mps 717 mmHg 37%
    10:00 +36°C° 0 mm 2 mps 716 mmHg 33%
    11:00 +36°C° 0 mm 2 mps 716 mmHg 30%
    12:00 +37°C° 0 mm 2 mps 715 mmHg 27%
    13:00 +38°C° 0 mm 2 mps 715 mmHg 26%
    14:00 +39°C° 0 mm 2 mps 714 mmHg 24%
    15:00 +39°C° 0 mm 2 mps 713 mmHg 23%
    16:00 +39°C° 0 mm 3 mps 713 mmHg 24%
    17:00 +39°C° 0 mm 3 mps 714 mmHg 26%
    18:00 +38°C° 0 mm 3 mps 714 mmHg 27%
    19:00 +38°C° 0 mm 3 mps 714 mmHg 30%
    20:00 +37°C° 0 mm 3 mps 714 mmHg 32%
    21:00 +37°C° 0 mm 2 mps 715 mmHg 34%
    22:00 +36°C° 0 mm 2 mps 715 mmHg 38%
    23:00 +35°C° 0 mm 2 mps 714 mmHg 42%

    26 September, Wednesday

    Time Temperature Precipitation Wind Pressure Humidity
    00:00 +34°C° 0 mm 2 mps 714 mmHg 46%
    01:00 +34°C° 0 mm 2 mps 714 mmHg 50%
    02:00 +33°C° 0 mm 3 mps 714 mmHg 53%
    03:00 +33°C° 0 mm 3 mps 713 mmHg 57%
    04:00 +31°C° 0 mm 2 mps 714 mmHg 58%
    05:00 +31°C° 0 mm 2 mps 714 mmHg 59%
    06:00 +31°C° 0 mm 2 mps 715 mmHg 59%
    07:00 +32°C° 0 mm 2 mps 715 mmHg 56%
    08:00 +32°C° 0 mm 2 mps 716 mmHg 52%
    09:00 +34°C° 0 mm 2 mps 716 mmHg 49%
    10:00 +35°C° 0 mm 2 mps 716 mmHg 43%
    11:00 +37°C° 0 mm 2 mps 715 mmHg 37%
    12:00 +37°C° 0 mm 1 mps 715 mmHg 32%
    13:00 +39°C° 0 mm 2 mps 714 mmHg 29%
    14:00 +39°C° 0 mm 2 mps 714 mmHg 27%
    15:00 +40°C° 0 mm 2 mps 713 mmHg 25%
    16:00 +40°C° 0 mm 3 mps 713 mmHg 27%
    17:00 +39°C° 0 mm 3 mps 713 mmHg 29%
    18:00 +39°C° 0 mm 3 mps 713 mmHg 30%
    19:00 +39°C° 0 mm 3 mps 714 mmHg 33%
    20:00 +38°C° 0 mm 3 mps 714 mmHg 36%
    21:00 +37°C° 0 mm 3 mps 715 mmHg 39%
    22:00 +36°C° 0 mm 3 mps 714 mmHg 44%
    23:00 +36°C° 0 mm 3 mps 714 mmHg 48%
    Show more